Regional Weather Roundup
Issued by NWS

Home | Current Version | Previous Version | Text Only | Print | Product List | Glossary On
Versions: 1 2 3 4 5 6 7 8 9 10 11 12 13 14 15 16 17 18 19 20 21 22 23 24 25 26 27 28 29 30 31 32 33 34 35 36 37 38 39 40 41 42 43 44 45 46 47 48 49 50
000
ASHW40 PHFO 290532
RWRHI

WEATHER ROUNDUP FOR HAWAII
NATIONAL WEATHER SERVICE HONOLULU HI
700 PM HST SUN AUG 28 2016

THIS IS AN AUTOMATED REPORT THAT HAS NOT BEEN QUALITY CONTROLLED.

NOTE..."FAIR" INDICATES FEW OR NO CLOUDS BELOW 12,000 FEET WITH NO
SIGNIFICANT WEATHER AND/OR OBSTRUCTIONS TO VISIBILITY.

* - THESE SITES REPORT LIMITED FIELDS

HIZ001>004-290600-
KAUAI-NIIHAU-

CITY           SKY/WX    TMP DP  RH WIND       PRES   REMARKS
LIHUE APT      CLEAR     79  66  64 NE18      29.99R
PORT ALLEN*      N/A     81 N/A N/A E18G26      N/A
POIPU*           N/A     79 N/A N/A NE10G17     N/A
PRINCEVILLE*     N/A     77 N/A N/A SE6         N/A
KOKOLE POINT*  NOT AVBL
MOLOAA DAIRY*    N/A     77  66  69 E6G13       N/A
WAIMEA HTS*    NOT AVBL
PUU OPAE*      NOT AVBL
PUU LUA*       NOT AVBL
MAKAHA RIDGE*    N/A    N/A N/A N/A E2G13       N/A
$$

HIZ005>011-290600-
OAHU-

CITY           SKY/WX    TMP DP  RH WIND       PRES   REMARKS
HONOLULU       PTCLDY    79  68  69 NE12      29.95R
KALAELOA       PTCLDY    80  67  64 E7        29.95R
KANEOHE MCB    MOCLDY    79  70  74 NE13G20   29.95R
WHEELER FIELD  FAIR      76  69  78 NE2       29.98R
BELLOWS*         N/A    N/A N/A N/A NE20        N/A
KAHUKU*          N/A    N/A N/A N/A VRB1        N/A
WHEELER*       NOT AVBL
WAIANAE HARBOR NOT AVBL
DILLINGHAM*      N/A     77  66  69 MISG        N/A
KAHUKU TRN*      N/A     82  75  78 N12G23      N/A
KAWAILOA*        N/A     72  66  83 E10G18      N/A
KII*             N/A     79  70  73 E20         N/A
MAKUA RANGE*     N/A     88  75  66 W8G16       N/A  HX  97
OAHU FOREST NW NOT AVBL
SCHOFIELD BRK*   N/A     75  68  78 MISG        N/A
SCHOFIELD S*   NOT AVBL
WAIANAE VLY*   NOT AVBL
KUAOKALA*      NOT AVBL
HONOULIUULI*   NOT AVBL
MOKUOLOE IS*   NOT AVBL
PALEHUA*       NOT AVBL
WAIAWA PHB*    NOT AVBL
$$

HIZ012>013-290600-
MOLOKAI-

CITY           SKY/WX    TMP DP  RH WIND       PRES   REMARKS
MOLOKAI AIRPT  MOCLDY    79  70  74 NE15G21   29.96R
KALAUPAPA      NOT AVBL
MAKAPULAPAI*     N/A     77  72  83 E18G29      N/A
MOLOKAI 1*     NOT AVBL
PUU ALII*        N/A     61  61 100 N2G10       N/A
$$

HIZ016-290600-
KAHOOLAWE-

CITY           SKY/WX    TMP DP  RH WIND       PRES   REMARKS
KAHOOLAWE*       N/A     70 N/A N/A E1          N/A
HAKIOAWA*        N/A     72  71  98 MISG      30.39R
HONOKANAIA*      N/A     79  72  79 NE10G26   29.86R
KANELOA*         N/A     75  72  88 NE17G30   29.99R
KEALIALALO*    NOT AVBL
LUA MAKIKA*    NOT AVBL
$$

HIZ014>015-290600-
LANAI-

CITY           SKY/WX    TMP DP  RH WIND       PRES   REMARKS
LANAI CITY     CLOUDY    72  68  87 E10       30.00R
LANAI 1*       NOT AVBL
$$

HIZ017>028-290600-
MAUI-

CITY           SKY/WX    TMP DP  RH WIND       PRES   REMARKS
KAHULUI        CLOUDY    78  69  73 NE9       29.95R
KAPALUA-W MAUI NOT AVBL
HANA AIRPORT     N/A     75  72  88 E12       30.00R
HANA*            N/A     77 N/A N/A SE3         N/A
HALEAKALA SUMM   N/A     46  46 100 NE13        N/A
MAALAEA BAY*     N/A     79 N/A N/A N21G29      N/A
HALEAKALA*     NOT AVBL
KAUPO GAP*     NOT AVBL
KULA 1*          N/A     57  57 100 N3          N/A
$$

HIZ023>026-290600-
BIG ISLAND OF HAWAII COAST AND LOWER SLOPES-

CITY           SKY/WX    TMP DP  RH WIND       PRES   REMARKS
KAILUA KONA    MOCLDY    84  72  67 W9        29.90R
HILO           PTCLDY    75  72  90 SW3       29.96R
HONOKAA*         N/A     70 N/A N/A VRB1        N/A
KAWAIHAE MWT*    N/A     84 N/A N/A S1G12       N/A
KAWAIHAE*        N/A     81 N/A N/A NE6       29.92R
SOUTH POINT*     N/A     73 N/A N/A N16G24      N/A
UPOLU AIRPORT* NOT AVBL
KAMUELA*       PTCLDY    66  64  94 NE18      30.06R
HAKALAU*         N/A     56  55  98 E3          N/A
KALOKO-HONOKO*   N/A     82  72  69 SW5         N/A
PALI 2*          N/A     66  63  88 S7G15       N/A
KEALAKOMO*       N/A     79  68  69 NE10G21     N/A
KAUPULEHU*     NOT AVBL
KAPAPALA*        N/A     69  68  95 NE3G13      N/A
LOWER KAHUKU*    N/A     61  61 100 E3G12       N/A
PUHE CS*         N/A     82  72  69 SW2         N/A
PUHO CS*         N/A     82  72  72 W1          N/A
PTA KEAMUKU*     N/A     66  61  82 CALM        N/A
WAIKOLOA*      NOT AVBL
$$

HIZ027>028-290600-
BIG ISLAND OF HAWAII INTERIOR AND SUMMMITS-

CITY           SKY/WX    TMP DP  RH WIND       PRES   REMARKS
BRADSHAW FIELD CLOUDY    59  57  94 SE5       30.28S
MK VISITOR CEN   N/A     48  46  93 SE8         N/A
MAUNA KEA*       N/A     36  36 100 S6          N/A
MAUNA LOA*       N/A     45  43  93 MISG        N/A
MAUNA LOA 1*   NOT AVBL
PTA KIPUKA*      N/A     73  73 100 NW3         N/A
PTA RANGE 17*    N/A     61  57  88 S1          N/A
PTA WEST*        N/A     64  63  94 SW5         N/A
NENE CABIN*      N/A     55  55 100 E6G13       N/A
AHUMOA*        NOT AVBL
PTA PORTABLE*  NOT AVBL
PUU MALI*        N/A     55  55 100 E10G18      N/A
$$

HIC003-290600-
NORTHWEST ISLANDS-

CITY           SKY/WX    TMP DP  RH WIND       PRES   REMARKS
MIDWAY ISLAND  PTSUNNY   81  73  78 N8        29.94R
MIDWAY NOS*      N/A     79 N/A N/A MISG      29.93R
FRENCH FRIGATE NOT AVBL
$$

PHZ110>124-180-290600-
BUOY REPORTS

STATION/POSITION TIME  TEMP    WIND        PRES    WAVE   SWELL
                       AIR SEA DIR/SP/G            HT/PER HT/DIR
                 (UTC) (F)     (DEG/KT/KT) (MB)    (FT/S) (FT/D)
BUOY 51001       NOT AVBL
BUOY 51101       0450   79 81   70/ 19/ 23 1015.2R   6/ 8   3/170
BUOY 51100       NOT AVBL
BUOY 51002       NOT AVBL
BUOY 51003       0450   81 83   70/ 10/ 12 1012.1R   5/ 7   5/ 60
BUOY 51004       0450   81 82   70/ 16/ 21 1012.8R   7/ 7   3/140
BARBERS PT BUOY  NOT AVBL
WAIMEA BAY BUOY  0504      81                N/A     5/ 8   2/310
KAILUA BAY BUOY  0511      81                N/A     6/ 8   2/ 50
LANAI BUOY       0515      83                N/A     2/13   2/200
BARBERS PT 2     NOT AVBL
PAUWELA MAUI     0509      81                N/A     6/ 8
HILO             0512      81                N/A     6/ 8   2/100
KANEOHE BAY BUOY 0506      80                N/A     6/ 6
HANALEI KAUAI    NOT AVBL
KAHULUI HARBOR   0500   77 81   50/  6/ 13 1014.3R
HONOLULU HARBOR  0500   80 82   60/  4/  8 1014.7R
KILO NALU        NOT AVBL
HILO HARBOR      0500   74 81  240/  5/  5 1014.3R
MOKUOLOE         0400   80 83   60/ 13/ 16 1014.1R
NAWILIWILI       0500   79      50/ 10/ 15 1015.2R
WHOTS BUOY       NOT AVBL
BUOY 51028       NOT AVBL
$$

......................KEY........................................
  SKY/WX - SKY CONDITIONS/PRESENT WEATHER
  TMP    - TEMPERATURE IN FAHRENHEIT
  DWPT   - DEWPOINT IN FAHRENHEIT
  RH     - RELATIVE HUMIDITY IN PERCENT
  WIND   - DIRECTION AND SPEED /MPH FOR ISLANDS...KTS FOR BUOYS/
  PRES   - MEAN SEA LEVEL PRESSURE IN INCHES OF HG
  VSB    - VISIBILITY IN MILES
  HX     - HEAT INDEX
  WCI    - WIND CHILL INDEX
  VRB    - VARIABLE WIND DIRECTION
  N/A    - NOT AVAILABLE



USA.gov is the U.S. government's official web portal to all federal, state and local government web resources and services.